Other Surface Observations
Issued by NWS

Current Version | Previous Version | Text Only | Print | Product List | Glossary On
Versions: 1 2 3 4 5 6 7 8 9 10 11 12 13 14 15 16 17 18 19 20 21 22 23 24 25 26 27 28 29 30 31 32 33 34 35 36 37 38 39 40 41 42 43 44 45 46 47 48 49 50
000
SXUS52 KTAE 271305
OSOTAE
OSOTAE
North Florida/South Alabama/Southwest Georgia Weather Roundup
National Weather Service Tallahassee Florida
900 AM EDT MON JUN 27 2016

Note: "fair" indicates few or no clouds below 12,000 feet with no
significant weather and/or obstructions to visibility.

!FLZ017-115-028-034-025-271400
...North Florida...

CITY           SKY/WX    TMP DP  RH WIND       PRES   REMARKS
TALLAHASSEE    MOSUNNY   79  71  76 CALM      30.12R
APALACHICOLA   CLOUDY    78  74  87 N5        30.11R
PERRY          MOSUNNY   76  71  84 N3        30.11S
CROSS CITY       N/A     79  73  82 NE3       30.09R
JACKSONVILLE   MOSUNNY   80  77  90 NW6       30.09R
$$

!FLZ112-006-005-002-011-271400
...Florida Panhandle...

CITY           SKY/WX    TMP DP  RH WIND       PRES   REMARKS
MARIANNA       CLOUDY    73  72  96 NE5       30.12R
BONIFAY        CLOUDY    73  72  96 E5        30.12
PANAMA CITY NW FAIR      76  72  87 E5        30.10R
TYNDALL AFB    MOSUNNY   78  73  82 NE5       30.11R
TYND DRONE APT NOT AVBL
DE FUNIAK SPR  FAIR      76  71  84 SE5       30.12S
EGLIN AFB      PTSUNNY   77  71  81 E5        30.10R
DESTIN         PTSUNNY   82  76  81 E5        30.10R
HURLBURT       MOSUNNY   81  72  74 E5        30.09R
CRESTVIEW      MOSUNNY   78  71  79 CALM      30.12R
PENSACOLA      MOSUNNY   80  76  87 E6        30.09R
$$

!ALZ063-066-271400
...South Alabama...

CITY           SKY/WX    TMP DP  RH WIND       PRES   REMARKS
DOTHAN         FOG       71  71 100 SE6       30.16S VSB 1
OZARK CAIRNS   CLOUDY    72  72 100 VRB3      30.12S
FT RUCKER HELI CLOUDY    71  70  96 CALM      30.11R FOG
RUCKER HELI 3  PTSUNNY   72  72  99 S3        30.13S
RUCKER HELI 2  NOT AVBL
FLORALA APT    SUNNY     77  70  79 E6        30.13R
ANDALUSIA      SUNNY     81  71  71 E5        30.11S
TROY           SUNNY     74  72  93 SE3       30.12S
EUFALA         FAIR      77  72  84 VRB5      30.11R
MOBILE         CLOUDY    80  73  79 NW5       30.10R
$$

!GAZ120>161-271400
...Southwest and South Central Georgia...

CITY           SKY/WX    TMP DP  RH WIND       PRES   REMARKS
THOMASVILLE      N/A     77  75  94 CALM      30.14S
BAINBRIDGE     CLOUDY    73  72  94 CALM      30.13S
MOODY AFB      SUNNY     78  73  82 N2        30.11R
VALDOSTA       SUNNY     78  74  87 CALM      30.12R
MOULTRIE       SUNNY     77  72  83 CALM      30.13S
BLAKELY        CLOUDY    73  72  94 CALM        N/A  FOG
ALBANY         PTSUNNY   72  71  97 CALM      30.14S
TIFTON         FAIR      77  71  81 CALM      30.12S
FITZGERALD     CLOUDY    82  75  79 CALM      30.15R
CORDELE        FAIR      78  73  86 CALM      30.14R
AMERICUS       FAIR      73  73 100 CALM      30.14F
HOMERVILLE     CLOUDY    75  75 100 CALM      30.13R FOG
$$

!GMZ750-755-770-775-271400
...Coastal and Buoy Obs...

STATION/POSITION TIME  TEMP    WIND        PRES    VSBY  WAVE
                       AIR SEA DIR/SP/G                  HT/PER
                 (UTC) (F)     (DEG/KT/KT) (MB)    (MI)  (FT/S)
KEATON BEACH     1300   80      60/  6/  8 1018.8R
CEDAR KEY        1200   80     180/  3/  4 1019.0R
C TOWER          1300   80      30/  8/  9 1019.8R
APALACHICOLA BUO 1250   84 84  210/  2/  4 1018.9R         1/ 4
PANAMA CITY BUOY 1250   81 84   80/ 12/ 14 1019.4R         1/ 4
MOBILE BUOY      1200   84 86  300/  6/  8 1018.4R
ORANGE BCH AL BU 1250   85 87              1018.0R         1/ 4
$$




USA.gov is the U.S. government's official web portal to all federal, state and local government web resources and services.